Location: Betra
(48.4113°N, 8.6634°E)
Time: 07:15:28
(UTC+00:00)

Cosmos 1953 - Pass Details

Date: 13 August 2024
Orbit: 506 x 524 km, 82.5° (Epoch: 07 September)

Event Time Altitude Azimuth Distance (km) Brightness Sun altitude
Exits shadow 02:26:09 - 158° (SSE) 2,085 5.0 -15.9°
Reaches altitude 10° 02:27:06 10° 152° (SSE) 1,734 4.7 -15.8°
Maximum altitude 02:30:25 30° 91° (E) 958 4.0 -15.4°
Drops below altitude 10° 02:33:48 10° 30° (NNE) 1,760 6.1 -15.0°
Sets 02:36:07 0° 19° (NNE) 2,658 7.0 -14.8°
